[[{"header":{"parameterUnit":"m.s-1","parameterCategory":1,"la1":30.2991,"la2":30.254,"lo1":-89.0895,"lo2":-89.0444,"dy":0.0017,"dx":0.0017,"nx":28,"ny":28,"refTime":"2024-06-01T09:00:00:Z","depth":0,"parameterNumber":2,"parameterNumberName":"U-component_of_WINDS"},"data":[0,0,0,0,0,0,0,0,0,0,0,0,0,0,0,0,0,0,0,0,0,0,0,0,0,0,0,0,0,0,0,0,0,0,0,0,0,0,0,0,0,0,0,0,0,0,0,0,0,0,0,0,0,0,0,0,0,0,-0.7198,-0.7199,0,-0.7327,-0.7328,-0.733,-0.7403,-0.7404,-0.7404,-0.7404,-0.7542,-0.7546,-0.7549,0,0,0,0,0,0,0,0,0,0,0,0,0,-0.7021,-0.7023,-0.7198,-0.7199,-0.7201,-0.7327,-0.7328,-0.733,-0.7403,-0.7404,-0.7404,-0.7404,-0.7541,-0.7545,-0.7549,0,0,0,0,0,0,0,0,0,0,0,0,0,-0.7118,-0.7024,-0.7198,-0.7253,-0.7259,-0.7326,-0.7328,-0.7331,-0.7403,-0.7404,-0.7404,-0.7404,-0.754,-0.7545,-0.755,-0.7574,0,0,-0.7566,-0.7568,0,0,0,0,0,0,0,0,-0.7113,-0.7125,-0.7243,-0.7249,-0.7256,-0.7349,-0.7317,-0.7413,-0.7403,-0.7349,-0.7404,-0.7404,-0.7478,-0.7488,-0.7512,-0.7581,-0.7587,-0.7566,-0.7569,-0.7571,-0.7573,0,0,0,0,0,0,0,-0.7106,-0.712,-0.7249,-0.7244,-0.7252,-0.7273,-0.7287,-0.7335,-0.741,-0.7353,-0.7359,-0.7373,-0.7482,-0.7507,-0.7516,-0.7589,-0.7566,-0.7571,-0.7574,-0.7576,-0.7686,-0.7686,0,0,0,0,0,0,-0.709,-0.7114,-0.7245,-0.7253,-0.7184,-0.7275,-0.7292,-0.7319,-0.741,-0.7424,-0.7372,-0.7376,-0.7498,-0.751,-0.7521,-0.7556,-0.7571,-0.7576,-0.7579,-0.7686,-0.7686,-0.7685,0,0,0,0,0,0,-0.7085,-0.7101,-0.724,-0.7185,-0.7204,-0.7278,-0.7309,-0.7321,-0.7346,-0.7424,-0.7438,-0.7384,-0.7499,-0.7514,-0.756,-0.7562,-0.7579,-0.7583,-0.7686,-0.7686,-0.7686,-0.7626,0,0,0,0,0,0,-0.708,-0.7099,-0.7107,-0.7184,-0.7207,-0.7275,-0.7309,-0.7324,-0.7354,-0.736,-0.7438,-0.7452,-0.75,-0.7552,-0.7565,-0.7569,-0.7587,-0.7686,-0.7686,-0.7686,-0.7628,-0.7624,-0.762,0,0,0,0,0,-0.7073,-0.7087,-0.7107,-0.7123,-0.7219,-0.7275,-0.7288,-0.7341,-0.7354,-0.7365,-0.7414,-0.7449,-0.7559,-0.7556,-0.7572,-0.7577,-0.7687,-0.7686,-0.7686,-0.763,-0.7625,-0.762,0,0,0,0,0,0,-0.701,-0.7098,-0.7122,-0.716,-0.7209,-0.7287,-0.7302,-0.7334,-0.7382,-0.7386,-0.7452,-0.7469,-0.7509,-0.7549,-0.7543,-0.7606,-0.7627,-0.763,-0.7579,-0.7575,-0.7571,-0.7561,-0.7592,0,0,0,0,0,-0.7,-0.7036,-0.7112,-0.7139,-0.7162,-0.7227,-0.7254,-0.729,-0.7345,-0.7367,-0.742,-0.7473,-0.752,-0.755,-0.7597,-0.7634,-0.7653,-0.7646,-0.7642,-0.7638,-0.764,-0.7663,-0.7661,-0.7684,-0.7684,-0.7684,0,0,-0.6981,-0.7033,-0.7052,-0.7127,-0.7169,-0.7207,-0.7244,-0.7283,-0.7312,-0.7374,-0.742,-0.7461,-0.7525,-0.7567,-0.7589,-0.7601,-0.7637,-0.7637,-0.7634,-0.7638,-0.7662,-0.766,-0.7658,-0.7684,-0.7684,-0.7684,0,0,-0.6964,-0.7007,-0.7034,-0.7075,-0.7139,-0.7182,-0.7188,-0.7262,-0.7291,-0.7338,-0.7385,-0.7422,-0.7501,-0.7544,-0.7577,-0.7577,-0.7611,-0.7591,-0.757,-0.7591,-0.759,-0.7588,-0.7589,-0.7588,-0.7592,-0.7592,-0.7592,0,-0.6933,-0.699,-0.7044,-0.708,-0.7112,-0.7167,-0.7196,-0.7234,-0.731,-0.7332,-0.7344,-0.7444,-0.7491,-0.7544,-0.7544,-0.7568,-0.7579,-0.7582,-0.7585,-0.7584,-0.7584,-0.7585,-0.7585,-0.7589,-0.759,-0.759,-0.759,0,-0.6948,-0.6987,-0.7002,-0.7071,-0.7105,-0.7137,-0.7198,-0.7226,-0.726,-0.7302,-0.7351,-0.7409,-0.7469,-0.7485,-0.7519,-0.7543,-0.7549,-0.7572,-0.7594,-0.7578,-0.758,-0.7581,-0.7585,-0.7586,-0.7587,-0.7588,0,0,-0.6896,-0.6995,-0.6999,-0.7032,-0.7105,-0.7138,-0.7173,-0.7229,-0.7252,-0.7303,-0.7335,-0.74,-0.7422,-0.7459,-0.7499,-0.7518,-0.7515,-0.754,-0.7542,-0.7533,-0.7546,-0.7528,-0.7528,-0.7538,-0.7538,-0.7539,-0.7541,0,-0.6891,-0.6954,-0.7004,-0.705,-0.7087,-0.714,-0.7171,-0.722,-0.7261,-0.73,-0.7346,-0.7391,-0.7417,-0.7439,-0.746,-0.7511,-0.7519,-0.7511,-0.757,-0.7571,-0.7552,-0.7529,-0.751,-0.7509,-0.7542,-0.7542,-0.7542,0,-0.6894,-0.694,-0.6988,-0.7058,-0.7076,-0.7102,-0.7158,-0.7194,-0.7252,-0.7281,-0.7321,-0.7362,-0.7403,-0.7421,-0.7479,-0.7473,-0.75,-0.7529,-0.753,-0.7538,-0.7556,-0.7537,-0.751,-0.751,-0.7544,-0.7544,-0.7544,0,-0.6851,-0.6926,-0.6965,-0.6991,-0.7073,-0.7091,-0.7126,-0.7184,-0.7215,-0.7265,-0.7286,-0.734,-0.737,-0.7412,-0.7468,-0.7475,-0.7521,-0.7543,-0.7547,-0.7546,-0.7555,-0.7553,-0.7533,-0.7571,-0.7571,-0.7571,-0.7571,0,-0.6841,-0.6868,-0.6947,-0.6971,-0.7004,-0.7062,-0.7093,-0.7134,-0.7184,-0.7218,-0.7268,-0.7299,-0.737,-0.741,-0.7454,-0.7496,-0.751,-0.7535,-0.7547,-0.7531,-0.7528,-0.755,-0.7552,-0.7571,-0.7571,-0.7571,-0.7571,0,-0.6799,-0.6853,-0.6898,-0.6972,-0.6991,-0.7012,-0.7076,-0.7102,-0.7145,-0.7187,-0.7201,-0.7269,-0.7319,-0.7378,-0.7448,-0.7478,-0.7516,-0.7533,-0.7496,-0.7502,-0.7503,-0.7503,-0.7497,-0.7499,-0.7535,-0.7534,-0.7534,0,-0.6789,-0.6811,-0.6886,-0.6911,-0.6945,-0.6985,-0.7016,-0.7075,-0.7106,-0.7173,-0.7191,-0.7244,-0.729,-0.7367,-0.7425,-0.7479,-0.7497,-0.7492,-0.7506,-0.7489,-0.7498,-0.7496,-0.7499,-0.7488,-0.7487,-0.7487,-0.7486,0,-0.6765,-0.6791,-0.6833,-0.6884,-0.6919,-0.6963,-0.7009,-0.7027,-0.7096,-0.7128,-0.7178,-0.7213,-0.7284,-0.7336,-0.7397,-0.7436,-0.7473,-0.7481,-0.7485,-0.7469,-0.7447,-0.7459,-0.7486,-0.7481,-0.7482,-0.7482,-0.7482,-0.7482,-0.674,-0.6762,-0.6818,-0.6864,-0.6904,-0.6945,-0.6973,-0.7019,-0.7061,-0.7122,-0.7154,-0.7204,-0.7262,-0.7347,-0.7385,-0.7426,-0.7439,-0.7444,-0.7446,-0.7447,-0.7442,-0.7439,-0.7438,-0.7438,-0.7438,-0.7438,-0.7438,0,-0.672,-0.6758,-0.6799,-0.6861,-0.6896,-0.6925,-0.6978,-0.7007,-0.7049,-0.7099,-0.7142,-0.7201,-0.7252,-0.7312,-0.7368,-0.739,-0.7408,-0.7402,-0.7402,-0.741,-0.7427,-0.7418,-0.7387,-0.7387,-0.7387,-0.7387,-0.7387,-0.7387,-0.6713,-0.6752,-0.6784,-0.6844,-0.6883,-0.693,-0.6958,-0.6997,-0.7037,-0.7099,-0.7141,-0.7179,-0.7234,-0.7294,-0.7343,-0.736,-0.7378,-0.7368,-0.739,-0.7405,-0.7409,-0.7413,-0.7405,-0.7371,-0.7371,-0.7369,-0.7369,-0.7369]},{"header":{"parameterUnit":"m.s-1","parameterCategory":1,"la1":30.2991,"la2":30.254,"lo1":-89.0895,"lo2":-89.0444,"dy":0.0017,"dx":0.0017,"nx":28,"ny":28,"refTime":"2024-06-01T09:00:00:Z","depth":0,"parameterNumber":3,"parameterNumberName":"V-component_of_WINDS"},"data":[0,0,0,0,0,0,0,0,0,0,0,0,0,0,0,0,0,0,0,0,0,0,0,0,0,0,0,0,0,0,0,0,0,0,0,0,0,0,0,0,0,0,0,0,0,0,0,0,0,0,0,0,0,0,0,0,0,0,3.4212,3.4213,0,3.4257,3.4257,3.4258,3.4242,3.4241,3.424,3.4239,3.4282,3.4284,3.4287,0,0,0,0,0,0,0,0,0,0,0,0,0,3.4109,3.4111,3.4212,3.4213,3.4213,3.4257,3.4257,3.4258,3.4242,3.4241,3.424,3.4239,3.4282,3.4284,3.4287,0,0,0,0,0,0,0,0,0,0,0,0,0,3.4154,3.4112,3.4212,3.4211,3.4211,3.4257,3.4257,3.4258,3.4243,3.4241,3.424,3.4238,3.4281,3.4284,3.4287,3.4336,0,0,3.4297,3.4298,0,0,0,0,0,0,0,0,3.4152,3.4158,3.421,3.4211,3.4211,3.4243,3.4237,3.4284,3.4243,3.4231,3.4239,3.4238,3.427,3.4274,3.4286,3.4338,3.434,3.4297,3.4299,3.43,3.4301,0,0,0,0,0,0,0,3.4148,3.4156,3.423,3.4211,3.4212,3.4207,3.4211,3.4246,3.4258,3.4232,3.4231,3.4236,3.427,3.4283,3.4287,3.434,3.4297,3.4299,3.4301,3.4303,3.4432,3.4434,0,0,0,0,0,0,3.4146,3.4153,3.4228,3.4231,3.4177,3.421,3.4215,3.4234,3.4258,3.426,3.4237,3.4235,3.4278,3.4283,3.4288,3.4345,3.43,3.4303,3.4305,3.4431,3.4433,3.4435,0,0,0,0,0,0,3.4143,3.4152,3.4227,3.4192,3.4201,3.4213,3.4235,3.4236,3.4248,3.4262,3.4264,3.4248,3.4277,3.4284,3.4324,3.4346,3.4304,3.4307,3.4429,3.4431,3.4434,3.446,0,0,0,0,0,0,3.4141,3.4152,3.4171,3.4193,3.4203,3.4263,3.4236,3.4238,3.4254,3.4252,3.4273,3.4275,3.4276,3.4319,3.4327,3.435,3.431,3.4427,3.443,3.4433,3.4457,3.4463,3.4468,0,0,0,0,0,3.4137,3.4177,3.4172,3.4182,3.4228,3.4264,3.427,3.4272,3.4256,3.4275,3.4283,3.4274,3.4343,3.4323,3.4332,3.4356,3.4426,3.4429,3.4433,3.4455,3.4462,3.4468,0,0,0,0,0,0,3.4157,3.418,3.4175,3.4223,3.4242,3.4261,3.4285,3.428,3.4302,3.4299,3.43,3.4305,3.4346,3.4355,3.4333,3.4404,3.4382,3.4387,3.4396,3.4403,3.4408,3.4404,3.4312,0,0,0,0,0,3.4168,3.4196,3.4214,3.4255,3.4264,3.4273,3.4289,3.4289,3.4308,3.4315,3.4327,3.4345,3.4371,3.4387,3.4412,3.4459,3.4463,3.448,3.4485,3.449,3.4494,3.4518,3.4526,3.4446,3.4446,3.4446,0,0,3.4189,3.4204,3.4222,3.4259,3.4273,3.4301,3.428,3.4311,3.4331,3.432,3.4358,3.4368,3.4387,3.4431,3.4451,3.444,3.4517,3.4494,3.4498,3.45,3.4523,3.453,3.4537,3.4449,3.4448,3.4448,0,0,3.4241,3.4257,3.4292,3.4307,3.4329,3.4335,3.4343,3.4363,3.4369,3.4408,3.4399,3.4423,3.4467,3.4482,3.4495,3.4552,3.4543,3.4559,3.4587,3.4611,3.4617,3.4623,3.4641,3.4648,3.4564,3.4564,3.4564,0,3.4264,3.4308,3.431,3.4342,3.4357,3.4349,3.4383,3.4397,3.4426,3.4436,3.4424,3.4479,3.4492,3.4538,3.4552,3.4563,3.4571,3.4556,3.4616,3.4622,3.4627,3.4645,3.4652,3.4566,3.4566,3.4565,3.4565,0,3.4334,3.4364,3.4389,3.4418,3.4436,3.4469,3.4475,3.4493,3.4491,3.4498,3.4536,3.4552,3.4578,3.4589,3.4588,3.4635,3.4627,3.4616,3.4594,3.4636,3.4653,3.466,3.4568,3.4568,3.4567,3.4567,0,0,3.44,3.4429,3.4438,3.445,3.4474,3.4497,3.4528,3.4555,3.457,3.459,3.4615,3.4653,3.4642,3.4657,3.4657,3.4678,3.472,3.4663,3.4664,3.4672,3.477,3.4778,3.4786,3.4715,3.4716,3.4717,3.4768,0,3.4454,3.451,3.4513,3.4564,3.459,3.4582,3.4609,3.4626,3.4633,3.4655,3.4663,3.4688,3.4673,3.4682,3.4702,3.471,3.4739,3.4707,3.4737,3.4738,3.4731,3.4795,3.4803,3.485,3.4775,3.4776,3.4777,0,3.4523,3.4546,3.4599,3.4618,3.4629,3.4653,3.4677,3.47,3.4718,3.4721,3.4737,3.4734,3.4765,3.4743,3.4785,3.4762,3.4775,3.4781,3.4783,3.4784,3.4759,3.4796,3.4865,3.4872,3.4787,3.4786,3.4786,0,3.4564,3.4608,3.4645,3.4656,3.4679,3.4696,3.4706,3.4723,3.4738,3.4759,3.4768,3.4792,3.4805,3.4823,3.4826,3.481,3.4868,3.4846,3.487,3.487,3.4881,3.488,3.4952,3.4892,3.4892,3.4892,3.4892,0,3.4623,3.4655,3.4663,3.4686,3.4722,3.4724,3.4759,3.4768,3.4783,3.4806,3.4801,3.4823,3.4826,3.4848,3.485,3.4884,3.489,3.4893,3.4893,3.4892,3.4892,3.4899,3.4896,3.4894,3.4893,3.4893,3.4893,0,3.4674,3.4681,3.4721,3.4739,3.4745,3.477,3.4785,3.4806,3.4812,3.4841,3.4848,3.4858,3.4883,3.4888,3.4919,3.4921,3.496,3.4957,3.4954,3.4953,3.4976,3.4973,3.5054,3.5064,3.4999,3.5,3.5,0,3.471,3.4735,3.4756,3.4771,3.4782,3.4808,3.4823,3.4826,3.4842,3.4864,3.4882,3.4908,3.4928,3.4969,3.4978,3.5001,3.4998,3.5025,3.5002,3.5,3.4997,3.4995,3.4996,3.5029,3.503,3.503,3.5031,0,3.4773,3.4775,3.4798,3.4822,3.4841,3.486,3.4878,3.489,3.4895,3.4913,3.494,3.4956,3.4987,3.5011,3.5034,3.5044,3.5038,3.5038,3.5044,3.5044,3.504,3.5041,3.4964,3.5036,3.5035,3.5035,3.5035,3.5034,3.4817,3.4838,3.4856,3.4881,3.4895,3.4911,3.4931,3.494,3.4962,3.4988,3.4988,3.5016,3.5033,3.5063,3.5074,3.5095,3.5087,3.5097,3.5099,3.5101,3.5102,3.5038,3.51,3.51,3.51,3.5099,3.5099,0,3.4878,3.4889,3.4912,3.4937,3.4957,3.495,3.4969,3.4985,3.5011,3.5027,3.5047,3.5076,3.51,3.5111,3.5134,3.5149,3.5147,3.5155,3.5153,3.5155,3.5109,3.5101,3.5156,3.5156,3.5156,3.5156,3.5156,3.5156,3.4912,3.4947,3.4951,3.4991,3.5002,3.503,3.5041,3.5056,3.5068,3.5102,3.5121,3.5128,3.5142,3.5166,3.5187,3.5189,3.5198,3.5207,3.5208,3.5165,3.5159,3.5153,3.5145,3.5209,3.5209,3.5252,3.5252,3.5252]}]]